Flag for Greenland Weather past 2 weeks in Danmarkshavn, Greenland

Now
28 °F

Sunny.


Feels Like: 23 °F
Forecast: 25 / 31 °F
Wind: 5 mph from East

Location: Danmarkshavn

Current Time: Aug 29, 2015 at 8:20:52 AM

Latest Report: Aug 29, 2015 at 6:00 AM


Visibility: 31 mi

Pressure: 29.93 "Hg

Humidity: 89%

Dew point: 26 °F

Location of DanmarkshavnLocation

Historic Weather in Danmarkshavn — Graph

°F

Danmarkshavn temperature yesterday

Maximum temperature yesterday: 36 °F (at 1:00 AM)
Minimum temperature yesterday: 30 °F (at 11:00 PM)
Average temperature yesterday: 33 °F

Past Weeks' High & Low Weather Summary

 TemperatureHumidityPressure
High46 °F (Aug 20, 5:00 PM)100% (Aug 14, 9:00 AM)30.34 "Hg (Aug 14, 9:00 AM)
Low28 °F (Aug 29, 4:00 AM)44% (Aug 26, 12:00 PM)29.50 "Hg (Aug 18, 2:00 AM)
Average36 °F86%30.06 "Hg
* Reported Aug 14 6:00 AM — Aug 29 6:00 AM, Danmarkshavn, Weather by CustomWeather, © 2015

Note: Actual official high and low records may vary slightly from our data, if they occured in-between our weather recording intervals... More about our weather records

Advertising

Danmarkshavn weather history for previous 24 hours

 ConditionsComfort  
Time TempWeatherWind HumidityBarometerVisibility
6:00 AM
Sat, Aug 29
28 °FSunny.5 mph89%29.93 "Hg31 mi
5:00 AM28 °FSunny.5 mph90%29.93 "Hg31 mi
4:00 AM28 °FPassing clouds.6 mph88%29.93 "Hg31 mi
3:00 AM29 °FClear.5 mph83%29.95 "Hg31 mi
1:00 AM29 °FClear.2 mph77%29.97 "Hg31 mi
12:00 AM30 °FClear.1 mph75%29.98 "Hg31 mi
11:00 PM
Fri, Aug 28
30 °FPassing clouds.2 mph77%30.00 "Hg31 mi
10:00 PM30 °FPassing clouds.3 mph83%30.01 "Hg31 mi
7:00 PM34 °FSunny.5 mph70%30.05 "Hg31 mi
6:00 PM34 °FSunny.3 mph62%30.07 "Hg31 mi
5:00 PM35 °FSunny.5 mph58%30.08 "Hg31 mi
4:00 PM34 °FSunny.5 mph79%30.09 "Hg31 mi
3:00 PM33 °FSunny.3 mph83%30.11 "Hg31 mi
2:00 PM33 °FSunny.6 mph83%30.13 "Hg31 mi
1:00 PM33 °FOvercast.3 mph81%30.14 "HgN/A
12:00 PM34 °FOvercast.2 mph76%30.14 "Hg31 mi
11:00 AM33 °FOvercast.5 mph78%30.14 "Hg31 mi
10:00 AM32 °FOvercast.3 mph86%30.15 "Hg31 mi
9:00 AM32 °FPartly sunny.1 mph84%30.16 "Hg31 mi
8:00 AM31 °FSunny.1 mph88%30.16 "Hg31 mi
Weather by CustomWeather, © 2015

See weather overviewHow to use our weather pages